Location: Arrayou
(43.1000°N, 0.0333°E)
Time: 23:14:03
(UTC+00:00)

Daily predictions for brighter satellites

Satellite Brightness Start Highest point End
(mag) Time Altitude Azimuth Time Altitude Azimuth Time Altitude Azimuth
In-Cosmos 22 4.3 18:08:38 10° N 18:13:46 50° ENE 18:18:55 10° SSE
Meteor 1-21 4.2 18:10:40 10° N 18:16:20 78° E 18:21:56 10° SSE
SL-08 RB Rocket 4.0 18:14:04 10° SE 18:18:17 43° ENE 18:22:31 10° N
BREEZE-M DEB (TANK) 4.5 18:05:26 10° WSW 18:18:49 76° NNW 18:22:35 10° ENE
Okean 2 3.3 18:14:46 10° N 18:18:51 69° E 18:22:55 10° SSE
Cosmos 1975 Rocket 4.4 18:18:07 10° NNE 18:21:28 20° ENE 18:24:48 10° ESE
SKYMED 2 3.8 18:17:11 10° N 18:21:32 78° WNW 18:25:52 10° SSW
Landsat 5 3.7 18:18:46 10° N 18:22:42 71° WNW 18:26:45 10° SSW
Okean-O 3.5 18:23:14 10° SE 18:27:05 30° ENE 18:30:57 10° N
CENTAUR R/B 3.8 18:25:02 10° SE 18:28:07 15° ESE 18:31:26 10° ENE
USA 215 4.0 18:24:41 10° E 18:30:39 39° NNE 18:36:38 10° NW
Cosmos 2074 Rocket 4.0 18:25:30 10° S 18:31:43 76° E 18:38:01 10° N
Spot 2 4.0 18:29:50 10° SSE 18:34:03 86° WSW 18:38:09 10° NNW
Cosmos 1378 Rocket 3.7 18:32:24 10° N 18:36:51 80° W 18:41:16 10° S
Cosmos 1908 Rocket 3.5 18:34:22 10° S 18:38:49 74° E 18:43:17 10° NNE
HJ-1C 3.4 18:37:51 10° SSE 18:41:02 52° ENE 18:44:13 10° N
Atlas Centaur 2 4.1 18:34:00 10° SW 18:41:05 33° S 18:47:58 12° ESE
OBJECT-B 2.5 18:43:19 15° ENE 18:43:44 15° ENE 18:45:40 10° NNE
IRAS Rocket 4.5 18:39:02 10° NNE 18:44:41 77° WNW 18:50:16 10° SSW
Cosmos 1184 Rocket 3.7 18:44:06 10° NNE 18:46:52 26° ENE 18:48:29 18° ESE
ARGOS 3.5 18:42:24 10° S 18:47:44 70° WSW 18:53:07 10° NNW
Cosmos 1346 Rocket 3.1 18:46:10 10° N 18:50:03 45° ENE 18:53:54 10° SSE
YAOGAN 1 2.6 18:48:11 10° SSE 18:52:31 88° WSW 18:56:52 10° NNW
H-2A R/B 3.7 18:49:46 10° SSW 18:54:23 36° W 18:59:10 10° NNW
SJ 16-02 1.5 18:50:18 10° S 18:54:35 52° ESE 18:58:54 10° NNE
Okean O Rocket 3.5 18:51:07 10° SSW 18:55:03 33° W 18:59:00 10° NNW
USA 186 3.1 18:55:20 20° ENE 18:55:20 20° ENE 18:57:41 10° NNE
DMSP B5D2-2 4.0 18:52:15 10° NNE 18:57:33 69° ESE 19:02:47 10° S
Cosmos 1943 Rocket 3.2 18:52:28 10° SW 18:57:51 50° WNW 19:03:20 10° NNE
Meteor 1-12 Rocket 4.4 18:52:02 10° S 18:57:55 61° E 19:03:48 10° NNE
Cosmos 1538 Rocket 4.4 18:54:10 10° N 18:59:20 45° ENE 19:03:23 16° SE
Cosmos 158 Rocket 4.5 18:55:10 10° N 18:59:48 36° ENE 19:02:32 20° ESE
NOSS 3-2 (A) 3.8 18:55:09 10° S 19:00:00 34° ESE 19:05:26 10° NE
Cosmos 1238 Rocket 4.0 18:55:54 10° SSW 19:02:11 76° W 19:07:40 10° N
ISS -1.6 19:02:57 10° NW 19:05:25 19° N 19:07:19 13° NE
CZ-2C R/B 3.9 19:02:58 10° N 19:08:16 46° WNW 19:13:34 10° SW
Cosmos 1441 Rocket 4.5 19:06:32 10° NNE 19:09:12 22° ENE 19:09:12 22° ENE
IRS-1C Rocket 4.2 19:06:24 10° SSE 19:11:39 81° WSW 19:16:57 10° NNW
COSMOS 2455 4.1 19:06:55 10° NW 19:12:33 42° WSW 19:18:09 10° S
Cosmos 962 Rocket 4.4 19:07:42 10° S 19:13:47 61° E 19:19:50 10° NNE
Geosat 4.0 19:09:22 10° NNE 19:14:25 90° ESE 19:19:26 10° SSW
PSLV R/B 4.0 19:10:28 10° NNE 19:14:31 51° E 19:18:30 10° S
Cosmos 2369 Rocket 2.4 19:12:08 10° SSW 19:17:47 72° WNW 19:23:26 10° NNE
Meteor 1-24 Rocket 4.4 19:13:47 10° N 19:18:35 32° ENE 19:19:55 28° E
Okean 2 Rocket 3.7 19:19:52 33° E 19:19:52 33° E 19:23:44 10° NNE
USA 276 3.8 19:17:24 10° NW 19:19:58 23° N 19:20:47 20° NNE
Cosmos 1833 4.2 19:15:25 10° NNW 19:21:00 59° ENE 19:24:01 27° SE
USA 306 4.3 19:18:56 10° NW 19:22:31 26° NNE 19:23:53 22° NE
Cosmos 1674 3.5 19:19:12 10° NNW 19:22:49 50° W 19:26:26 10° S
Cosmos 1777 Rocket 4.5 19:20:04 10° SSW 19:25:15 62° WNW 19:30:27 10° NNE
CSL-04 Debris 4.1 19:20:16 10° SSE 19:25:40 88° WSW 19:31:05 10° NNW
Lacrosse 5 rocket 2.7 19:21:39 10° WNW 19:25:52 38° SW 19:28:53 16° S
H-2A R/B 3.2 19:22:04 10° N 19:26:01 43° WNW 19:29:55 10° SW
USA 308 4.3 19:26:00 10° NW 19:29:38 26° NNE 19:30:44 23° NE
Cosmos 1782 Rocket 4.2 19:26:15 10° SSW 19:30:37 57° W 19:34:59 10° N
Cosmos 1626 2.4 19:27:04 10° NNW 19:30:45 67° W 19:33:38 16° S
Sich 1 Rocket 3.5 19:29:08 10° S 19:33:38 67° E 19:38:08 10° NNE
Cosmos 1656 Rocket 3.8 19:28:11 10° SSW 19:33:46 77° WNW 19:39:18 10° NNE
BREEZE-M R/B 3.5 19:31:23 10° WNW 19:34:50 38° N 19:36:13 27° NE
ATLAS CENTAUR R/B 3.9 19:31:10 10° WNW 19:34:56 24° WSW 19:38:47 10° SSW
APEX 3.3 19:31:00 10° NNW 19:35:35 61° ENE 19:35:58 57° E
Cosmos 1805 3.8 19:31:48 10° SSW 19:35:37 57° W 19:39:27 10° N
SeaSat 1 2.7 19:36:16 42° E 19:37:22 50° ENE 19:42:09 10° NNW
Cosmos 1315 Rocket 3.0 19:34:35 10° SSW 19:38:33 69° WNW 19:42:35 10° N
CZ-4B R/B 2.6 19:36:42 10° N 19:39:37 40° WNW 19:42:35 10° SW
Cosmos 1025 Rocket 2.8 19:35:20 10° N 19:39:41 80° E 19:41:03 43° SSE
SL-14 R/B 3.1 19:36:01 10° N 19:39:59 85° E 19:40:47 55° SSE
Cosmos 923 Rocket 4.3 19:35:48 10° N 19:40:47 45° ENE 19:41:23 43° E
Cosmos 1536 Rocket 4.4 19:36:48 10° N 19:40:03 34° NE 19:40:03 34° NE
SJ-6B 2.8 19:41:52 61° SE 19:42:26 73° ENE 19:46:32 10° N
SL-8 Rocket 3.9 19:38:25 10° S 19:44:39 74° E 19:50:58 10° NNE
CZ-4 R/B 4.0 19:44:29 10° SW 19:47:13 19° W 19:49:58 10° NW
Meteor 2-10 4.0 19:45:59 10° S 19:51:36 70° E 19:57:04 10° NNE
MOS 1 4.4 19:50:50 48° ESE 19:51:48 55° ENE 19:57:21 10° N
Cosmos 1680 Rocket 3.9 19:48:23 10° N 19:53:19 44° ENE 19:53:19 44° ENE
Cosmos 2151 Rocket 4.2 19:55:30 43° NE 19:55:30 43° NE 19:58:41 10° NNE
Cosmos 1339 Rocket 4.4 19:48:17 10° N 19:54:30 89° W 19:58:25 24° S
EO 1 Delta rocket 3.9 19:54:11 59° ESE 19:54:54 67° ENE 20:00:29 10° N
IRS-1A Rocket 4.3 19:59:35 55° ESE 20:00:30 62° ENE 20:06:20 10° N
SL-27 R/B 4.2 19:57:12 10° NNW 19:58:44 25° N 19:58:44 25° N
Cosmos 1300 Rocket 4.1 19:58:02 10° SSW 20:02:20 56° W 20:06:39 10° N
Cosmos 1727 Rocket 4.0 20:00:10 10° N 20:06:24 56° ENE 20:06:40 56° E
Meteor 1-22 Rocket 4.2 20:04:28 10° S 20:10:02 86° W 20:15:54 10° N
NOSS 3-2 (C) 3.7 20:05:45 10° SSW 20:18:56 - NE 20:09:25 43° S
Cosmos 2112 Rocket 4.4 20:07:24 10° NNW 20:11:50 50° NE 20:11:50 50° NE
USA 215 3.2 20:11:36 54° SE 20:13:16 85° SW 20:19:54 10° NW
Cosmos 990 Rocket 3.8 20:09:28 10° SSW 20:14:37 89° WNW 20:19:51 10° NNE
OBJECT-B 3.1 20:16:13 24° WNW 20:16:13 24° WNW 20:18:18 10° NW
CENTAUR R/B 2.3 20:11:42 10° SW 20:17:26 88° NW 20:24:24 10° NE
Resurs 01 Rocket 3.1 20:20:48 28° N 20:20:48 28° N 20:23:01 10° N
Meteor 2-5 Rocket 4.0 20:14:17 10° NNW 20:19:46 64° W 20:21:30 43° SSW
Helios 1A Rocket 4.0 20:21:11 41° NNW 20:21:11 41° NNW 20:23:58 10° NNW
Resurs 1-3 4.3 20:21:57 52° NNW 20:21:57 52° NNW 20:25:21 10° NNW
Ariane Rocket 3.1 20:22:33 66° N 20:22:33 66° N 20:26:56 10° NNW
CZ-3 Stage 3 3.9 20:00:28 10° WSW 20:22:52 39° SSW 20:24:26 36° S
BREEZE-M DEB (TANK) 4.4 20:09:46 10° WNW 20:27:26 73° SSW 20:28:32 62° SSE
Cosmos 2366 rocket 4.3 20:23:14 10° SSW 20:29:18 63° W 20:35:25 10° N
Atlas Centaur 2 4.0 20:22:55 10° WSW 20:29:59 30° SSW 20:30:32 30° S
SJ 16-02 4.2 20:30:36 10° W 20:33:29 17° WNW 20:36:24 10° NNW
Cosmos 1241 Rocket 4.4 20:27:44 10° NW 20:34:00 75° WSW 20:34:12 75° SW
USA 238 DEB 3.7 20:35:35 10° SW 20:42:03 71° NW 20:48:54 10° NNE
USA 238 3.7 20:35:42 10° SW 20:42:09 71° NW 20:49:00 10° NNE
Cosmos 2297 Rocket 3.6 20:37:40 10° N 20:40:51 27° NNE 20:40:51 27° NNE
ISS -0.4 20:39:51 10° NW 20:40:17 13° NW 20:40:17 13° NW
NOSS 3-2 (A) 4.4 20:45:17 10° WSW 20:50:37 43° NW 20:56:47 10° NNE
Cosmos 2227 Rocket 3.9 21:00:19 10° N 21:02:56 24° N 21:02:56 24° N
USA 281 4.1 21:11:45 10° NNE 21:15:50 41° N 21:15:50 41° N
CENTAUR R/B 4.5 22:04:05 10° W 22:09:13 25° NNW 22:15:08 10° NNE
